Location: Unspecified
(0.0000°N, 0.0000°E)
Time: 00:30:49
(UTC+00:00)

Hubble Space Telescope - Pass Details

Date: 24 June 2017
Orbit: 538 x 542 km, 28.5° (Epoch: 19 August)

Event Time Altitude Azimuth Distance (km) Brightness Sun altitude
Exits shadow 03:32:45 17° 51° (NE) 1,413 3.6 -33.9°
Drops below altitude 10° 03:33:43 10° 53° (NE) 1,785 4.2 -33.7°
Sets 03:36:00 0° 56° (NE) 2,675 5.4 -33.2°
